This is the latest recevied weather packets stored in our database for station/object OH6GKW. If no packets are shown the sender has not sent any weather packets the latest 10 day(s).
| Time | Temp. | Humidity | Pressure | Rain* | Wind** | Luminosity | Snow |
|---|---|---|---|---|---|---|---|
| 1787918628 | 20° C | 62% | 1021.4 hPa | 0 mm | - | 195 W/m² | - |
| 1787918321 | 20° C | 61% | 1021.4 hPa | 0 mm | - | 290 W/m² | - |
| 1787918018 | 20° C | 59% | 1021.4 hPa | 0 mm | - | 213 W/m² | - |
| 1787917713 | 20° C | 58% | 1021.4 hPa | 0 mm | - | 582 W/m² | - |
| 1787917426 | 20° C | 59% | 1021.5 hPa | 0 mm | - | 554 W/m² | - |
| 1787917117 | 20.56° C | 58% | 1021.5 hPa | 0 mm | - | 472 W/m² | - |
| 1787916816 | 20.56° C | 56% | 1021.5 hPa | 0 mm | - | 370 W/m² | - |
| 1787916532 | 20.56° C | 59% | 1021.7 hPa | 0 mm | - | 588 W/m² | - |
| 1787916230 | 20° C | 61% | 1021.7 hPa | 0 mm | - | 674 W/m² | - |
| 1787915917 | 19.44° C | 60% | 1021.7 hPa | 0 mm | - | 477 W/m² | - |
| 1787915610 | 19.44° C | 60% | 1021.7 hPa | 0 mm | - | 274 W/m² | - |
| 1787915321 | 19.44° C | 59% | 1021.7 hPa | 0 mm | - | 341 W/m² | - |
| 1787915024 | 20° C | 58% | 1021.7 hPa | 0 mm | - | 299 W/m² | - |
| 1787914715 | 20° C | 58% | 1021.8 hPa | 0 mm | - | 581 W/m² | - |
| 1787914408 | 20.56° C | 58% | 1021.8 hPa | 0 mm | - | 468 W/m² | - |
| 1787914124 | 20° C | 58% | 1021.8 hPa | 0 mm | - | 521 W/m² | - |
| 1787913828 | 20° C | 58% | 1021.8 hPa | 0 mm | - | 660 W/m² | - |
| 1787913521 | 20° C | 56% | 1021.8 hPa | 0 mm | - | 706 W/m² | - |
| 1787913214 | 20.56° C | 56% | 1021.8 hPa | 0 mm | - | 454 W/m² | - |
| 1787912922 | 20.56° C | 57% | 1022 hPa | 0 mm | - | 644 W/m² | - |
| 1787912619 | 20.56° C | 56% | 1022 hPa | 0 mm | - | 649 W/m² | - |
| 1787912311 | 20° C | 57% | 1021.9 hPa | 0 mm | - | 642 W/m² | - |
| 1787912027 | 20° C | 60% | 1022 hPa | 0 mm | - | 646 W/m² | - |
| 1787911717 | 19.44° C | 58% | 1022 hPa | 0 mm | - | 642 W/m² | - |
| 1787911412 | 18.89° C | 59% | 1022 hPa | 0 mm | - | 644 W/m² | - |
* Rain since midnight (hover to see other rain measurements)
** Current wind speed in m/s (hover to see current wind gust speed)